[[{"header":{"parameterUnit":"m.s-1","parameterCategory":1,"la1":30.2991,"la2":30.254,"lo1":-89.0895,"lo2":-89.0444,"dy":0.0017,"dx":0.0017,"nx":28,"ny":28,"refTime":"2024-10-08T09:00:00:Z","depth":0,"parameterNumber":2,"parameterNumberName":"U-component_of_WINDS"},"data":[0,0,0,0,0,0,0,0,0,0,0,0,0,0,0,0,0,0,0,0,0,0,0,0,0,0,0,0,0,0,0,0,0,0,0,0,0,0,0,0,0,0,0,0,0,0,0,0,0,0,0,0,0,0,0,0,0,0,-1.5475,-1.5476,0,-1.5573,-1.5574,-1.5575,-1.554,-1.5538,-1.5535,-1.5533,-1.5636,-1.5641,-1.5646,0,0,0,0,0,0,0,0,0,0,0,0,0,-1.5259,-1.5264,-1.5475,-1.5476,-1.5477,-1.5572,-1.5574,-1.5575,-1.554,-1.5537,-1.5535,-1.5532,-1.5635,-1.5641,-1.5646,0,0,0,0,0,0,0,0,0,0,0,0,0,-1.5355,-1.5265,-1.5474,-1.5471,-1.5472,-1.5572,-1.5574,-1.5576,-1.5541,-1.5537,-1.5534,-1.5531,-1.5633,-1.564,-1.5647,-1.5758,0,0,-1.5669,-1.5672,0,0,0,0,0,0,0,0,-1.5349,-1.5363,-1.547,-1.5471,-1.5472,-1.554,-1.5536,-1.5637,-1.5542,-1.5515,-1.5533,-1.5529,-1.5607,-1.5616,-1.5642,-1.5762,-1.5767,-1.567,-1.5674,-1.5677,-1.5679,0,0,0,0,0,0,0,-1.5343,-1.5358,-1.5513,-1.5472,-1.5473,-1.5465,-1.5475,-1.5555,-1.5578,-1.5517,-1.5514,-1.5526,-1.5607,-1.5635,-1.5644,-1.5768,-1.567,-1.5676,-1.568,-1.5683,-1.5985,-1.5989,0,0,0,0,0,0,-1.5335,-1.5353,-1.551,-1.5516,-1.5401,-1.5472,-1.5483,-1.5522,-1.5577,-1.5583,-1.5529,-1.5524,-1.5625,-1.5636,-1.5648,-1.5782,-1.5677,-1.5684,-1.5688,-1.5981,-1.5986,-1.599,0,0,0,0,0,0,-1.5331,-1.535,-1.5506,-1.5434,-1.5453,-1.5479,-1.5523,-1.5526,-1.5554,-1.5587,-1.5591,-1.5553,-1.5623,-1.5638,-1.5731,-1.5785,-1.5687,-1.5694,-1.5977,-1.5983,-1.5988,-1.6051,0,0,0,0,0,0,-1.5325,-1.5348,-1.539,-1.5435,-1.5457,-1.5587,-1.5527,-1.553,-1.5566,-1.5561,-1.5611,-1.5616,-1.5621,-1.572,-1.5738,-1.5793,-1.5699,-1.5972,-1.598,-1.5986,-1.6044,-1.6058,-1.607,0,0,0,0,0,-1.5317,-1.5405,-1.5393,-1.5412,-1.551,-1.559,-1.5603,-1.5607,-1.557,-1.5613,-1.5634,-1.5614,-1.5776,-1.573,-1.575,-1.5808,-1.5969,-1.5978,-1.5986,-1.6039,-1.6055,-1.607,0,0,0,0,0,0,-1.5367,-1.5411,-1.5398,-1.5502,-1.5543,-1.5584,-1.5639,-1.5624,-1.5677,-1.567,-1.5673,-1.5685,-1.578,-1.5803,-1.5751,-1.5918,-1.5867,-1.588,-1.5901,-1.5917,-1.5929,-1.5923,-1.5705,0,0,0,0,0,-1.5389,-1.545,-1.5485,-1.5574,-1.5595,-1.5613,-1.5648,-1.5647,-1.569,-1.5707,-1.5735,-1.5778,-1.5838,-1.5878,-1.5936,-1.6046,-1.6058,-1.6096,-1.6109,-1.6119,-1.6131,-1.6193,-1.6211,-1.6017,-1.6017,-1.6017,0,0,-1.5438,-1.5469,-1.5507,-1.5584,-1.5616,-1.568,-1.5628,-1.5697,-1.5745,-1.5718,-1.5808,-1.5829,-1.5877,-1.598,-1.6027,-1.6002,-1.6187,-1.613,-1.6138,-1.6144,-1.6203,-1.6221,-1.6238,-1.6023,-1.6022,-1.6021,0,0,-1.5558,-1.5587,-1.5665,-1.5697,-1.5745,-1.5756,-1.5775,-1.5819,-1.5832,-1.5921,-1.5903,-1.5959,-1.6063,-1.6098,-1.613,-1.6263,-1.6247,-1.6281,-1.635,-1.6409,-1.6425,-1.6438,-1.6487,-1.6505,-1.6292,-1.6293,-1.6293,0,-1.5613,-1.5707,-1.5707,-1.5778,-1.5813,-1.579,-1.5869,-1.59,-1.5965,-1.599,-1.5961,-1.6091,-1.6121,-1.6232,-1.6265,-1.629,-1.6313,-1.6277,-1.6422,-1.6436,-1.6448,-1.6496,-1.6514,-1.6297,-1.6296,-1.6296,-1.6295,0,-1.5773,-1.5838,-1.5895,-1.5958,-1.5998,-1.6073,-1.6085,-1.6127,-1.6122,-1.6136,-1.6228,-1.6264,-1.6328,-1.6354,-1.635,-1.6465,-1.6448,-1.642,-1.637,-1.6471,-1.6515,-1.6533,-1.6302,-1.6301,-1.63,-1.6299,0,0,-1.593,-1.5989,-1.6011,-1.6039,-1.6089,-1.6141,-1.6214,-1.6276,-1.6313,-1.6357,-1.6421,-1.6508,-1.6483,-1.6519,-1.6518,-1.657,-1.6675,-1.6536,-1.6537,-1.6563,-1.6806,-1.6828,-1.6849,-1.6663,-1.6667,-1.667,-1.6802,0,-1.6056,-1.6186,-1.6187,-1.6306,-1.6368,-1.6346,-1.641,-1.6448,-1.6464,-1.6518,-1.6535,-1.6598,-1.6559,-1.6581,-1.6631,-1.6652,-1.6725,-1.6642,-1.6724,-1.6727,-1.6716,-1.6872,-1.6896,-1.7019,-1.6819,-1.6822,-1.6824,0,-1.6222,-1.6271,-1.6397,-1.6438,-1.6464,-1.6522,-1.6579,-1.6631,-1.6674,-1.6682,-1.6721,-1.6712,-1.6789,-1.6733,-1.6839,-1.6782,-1.6816,-1.6831,-1.6836,-1.6846,-1.6784,-1.6888,-1.7059,-1.7078,-1.6851,-1.6849,-1.6847,0,-1.6327,-1.6424,-1.6512,-1.6537,-1.6587,-1.6628,-1.6651,-1.669,-1.6728,-1.6777,-1.6802,-1.686,-1.6893,-1.6938,-1.6946,-1.6904,-1.7053,-1.6997,-1.7063,-1.7063,-1.7097,-1.7096,-1.7278,-1.7114,-1.7114,-1.7114,-1.7113,0,-1.647,-1.6548,-1.656,-1.6615,-1.6701,-1.6702,-1.6788,-1.6807,-1.6843,-1.6901,-1.6885,-1.694,-1.6945,-1.7003,-1.7009,-1.7096,-1.7111,-1.712,-1.7121,-1.7123,-1.7122,-1.7147,-1.714,-1.7119,-1.7118,-1.7117,-1.7116,0,-1.6603,-1.6614,-1.6709,-1.6747,-1.6759,-1.6822,-1.6855,-1.6908,-1.692,-1.6994,-1.7012,-1.7032,-1.7099,-1.711,-1.7188,-1.7192,-1.7298,-1.7289,-1.7284,-1.7283,-1.7349,-1.7343,-1.7556,-1.7584,-1.74,-1.7401,-1.7403,0,-1.6695,-1.6754,-1.6799,-1.6837,-1.6862,-1.6922,-1.696,-1.6962,-1.7002,-1.7055,-1.7101,-1.7166,-1.7218,-1.7325,-1.7347,-1.7407,-1.7401,-1.7471,-1.741,-1.741,-1.7405,-1.7403,-1.7409,-1.7484,-1.7486,-1.7488,-1.7489,0,-1.6857,-1.686,-1.6914,-1.6971,-1.7016,-1.7061,-1.7103,-1.7135,-1.7143,-1.7189,-1.7256,-1.7296,-1.7375,-1.744,-1.7499,-1.7524,-1.7509,-1.7507,-1.7526,-1.753,-1.7526,-1.7531,-1.7318,-1.7503,-1.7502,-1.7501,-1.75,-1.75,-1.6975,-1.7027,-1.7066,-1.7128,-1.716,-1.7199,-1.7251,-1.7269,-1.7325,-1.7389,-1.7387,-1.7461,-1.7502,-1.758,-1.7608,-1.7667,-1.7645,-1.7671,-1.7678,-1.7686,-1.7693,-1.7514,-1.7677,-1.7677,-1.7677,-1.7676,-1.7676,0,-1.7138,-1.7162,-1.7219,-1.7278,-1.7327,-1.7306,-1.7351,-1.7394,-1.7459,-1.7498,-1.7549,-1.7627,-1.7689,-1.7716,-1.7777,-1.7819,-1.7814,-1.7835,-1.7834,-1.784,-1.7708,-1.7687,-1.7839,-1.7839,-1.7839,-1.7839,-1.7839,-1.7839,-1.7229,-1.7317,-1.7324,-1.7427,-1.745,-1.7523,-1.7551,-1.7588,-1.7619,-1.7706,-1.7757,-1.7774,-1.7808,-1.7872,-1.7928,-1.7935,-1.7959,-1.7985,-1.7988,-1.7865,-1.7849,-1.7833,-1.7814,-1.7989,-1.7989,-1.8115,-1.8116,-1.8117]},{"header":{"parameterUnit":"m.s-1","parameterCategory":1,"la1":30.2991,"la2":30.254,"lo1":-89.0895,"lo2":-89.0444,"dy":0.0017,"dx":0.0017,"nx":28,"ny":28,"refTime":"2024-10-08T09:00:00:Z","depth":0,"parameterNumber":3,"parameterNumberName":"V-component_of_WINDS"},"data":[0,0,0,0,0,0,0,0,0,0,0,0,0,0,0,0,0,0,0,0,0,0,0,0,0,0,0,0,0,0,0,0,0,0,0,0,0,0,0,0,0,0,0,0,0,0,0,0,0,0,0,0,0,0,0,0,0,0,-5.916,-5.9161,0,-5.9225,-5.9226,-5.9227,-5.9134,-5.9131,-5.9127,-5.9124,-5.9186,-5.919,-5.9195,0,0,0,0,0,0,0,0,0,0,0,0,0,-5.8951,-5.8955,-5.916,-5.9161,-5.9162,-5.9225,-5.9226,-5.9227,-5.9134,-5.913,-5.9126,-5.9123,-5.9184,-5.919,-5.9195,0,0,0,0,0,0,0,0,0,0,0,0,0,-5.9031,-5.8956,-5.916,-5.9124,-5.9121,-5.9225,-5.9226,-5.9227,-5.9135,-5.913,-5.9125,-5.9121,-5.9182,-5.9189,-5.9196,-5.9337,0,0,-5.9217,-5.9221,0,0,0,0,0,0,0,0,-5.9027,-5.9039,-5.9128,-5.9126,-5.9124,-5.9167,-5.9174,-5.9264,-5.9137,-5.913,-5.9124,-5.9118,-5.9183,-5.919,-5.9212,-5.934,-5.9343,-5.9218,-5.9222,-5.9225,-5.9227,0,0,0,0,0,0,0,-5.9021,-5.9036,-5.9186,-5.913,-5.9127,-5.9102,-5.9108,-5.9191,-5.9183,-5.913,-5.9123,-5.9133,-5.9181,-5.9206,-5.9213,-5.9344,-5.9218,-5.9224,-5.9228,-5.9231,-5.959,-5.9595,0,0,0,0,0,0,-5.9021,-5.9032,-5.9184,-5.9188,-5.9062,-5.911,-5.9117,-5.9158,-5.9182,-5.9181,-5.9137,-5.9128,-5.9196,-5.9205,-5.9215,-5.9382,-5.9225,-5.9232,-5.9236,-5.9585,-5.9591,-5.9597,0,0,0,0,0,0,-5.9017,-5.9035,-5.9181,-5.9108,-5.9125,-5.9119,-5.9166,-5.9161,-5.9187,-5.9187,-5.9184,-5.9164,-5.9193,-5.9205,-5.9308,-5.9382,-5.9235,-5.9241,-5.9578,-5.9587,-5.9594,-5.9717,0,0,0,0,0,0,-5.9011,-5.9034,-5.909,-5.911,-5.9129,-5.9275,-5.917,-5.9166,-5.92,-5.9189,-5.9212,-5.9211,-5.919,-5.9298,-5.9315,-5.9389,-5.9247,-5.9572,-5.9582,-5.9591,-5.9706,-5.9728,-5.9747,0,0,0,0,0,-5.9004,-5.9121,-5.9093,-5.9112,-5.9198,-5.928,-5.929,-5.9265,-5.9206,-5.926,-5.926,-5.921,-5.9372,-5.9309,-5.9327,-5.9405,-5.9567,-5.9579,-5.9591,-5.9697,-5.9724,-5.9746,0,0,0,0,0,0,-5.9107,-5.9123,-5.9092,-5.9219,-5.9249,-5.9264,-5.9332,-5.9294,-5.934,-5.9328,-5.9292,-5.9298,-5.9408,-5.9417,-5.9347,-5.9543,-5.9459,-5.9475,-5.9534,-5.9559,-5.9579,-5.9575,-5.9253,0,0,0,0,0,-5.9145,-5.9212,-5.9221,-5.9332,-5.9349,-5.9338,-5.9373,-5.935,-5.9379,-5.9391,-5.9398,-5.9427,-5.9483,-5.9522,-5.9574,-5.9707,-5.971,-5.9769,-5.9789,-5.9806,-5.9821,-5.9891,-5.9917,-5.9636,-5.9636,-5.9636,0,0,-5.9223,-5.924,-5.9284,-5.9353,-5.9374,-5.9442,-5.9349,-5.9425,-5.9475,-5.9402,-5.95,-5.9506,-5.9535,-5.9654,-5.9706,-5.9664,-5.9899,-5.9821,-5.9835,-5.984,-5.9906,-5.9932,-5.9956,-5.9644,-5.9643,-5.9641,0,0,-5.9401,-5.9421,-5.9516,-5.9539,-5.9571,-5.9563,-5.9586,-5.9607,-5.9609,-5.9707,-5.9654,-5.9711,-5.981,-5.9833,-5.9857,-6.0044,-5.9999,-6.0061,-6.0168,-6.0237,-6.0259,-6.0278,-6.0344,-6.0368,-6.0076,-6.0076,-6.0076,0,-5.9494,-5.9597,-5.9569,-5.9649,-5.9681,-5.9619,-5.9714,-5.9736,-5.9784,-5.9806,-5.9759,-5.9882,-5.9897,-6.0019,-6.0065,-6.0087,-6.0111,-6.0059,-6.0258,-6.0277,-6.0295,-6.0357,-6.0382,-6.0083,-6.0083,-6.0082,-6.0081,0,-5.9709,-5.9781,-5.9853,-5.9903,-5.9942,-6.0029,-6.0013,-6.0055,-6.003,-6.0026,-6.0126,-6.0142,-6.0197,-6.0224,-6.0199,-6.0343,-6.0316,-6.0264,-6.0179,-6.033,-6.0388,-6.0411,-6.0094,-6.0091,-6.0089,-6.0087,0,0,-5.9954,-5.9987,-6.0014,-6.0036,-6.0067,-6.0121,-6.0205,-6.026,-6.0297,-6.0331,-6.0399,-6.0485,-6.0437,-6.0465,-6.0441,-6.0502,-6.0648,-6.0442,-6.0442,-6.048,-6.0807,-6.0846,-6.0874,-6.0619,-6.0623,-6.0626,-6.0804,0,-6.0131,-6.0278,-6.0255,-6.0396,-6.0461,-6.0403,-6.0475,-6.0502,-6.0501,-6.0554,-6.0551,-6.0613,-6.0545,-6.0562,-6.0619,-6.0618,-6.0713,-6.0605,-6.068,-6.0683,-6.0675,-6.0904,-6.0946,-6.1113,-6.0827,-6.0831,-6.0833,0,-6.0358,-6.0403,-6.0551,-6.0572,-6.0599,-6.0665,-6.0713,-6.0765,-6.0793,-6.0788,-6.082,-6.0785,-6.0866,-6.078,-6.0891,-6.0818,-6.0847,-6.0852,-6.0857,-6.0863,-6.0768,-6.0916,-6.1166,-6.1191,-6.0869,-6.0866,-6.0864,0,-6.0522,-6.0619,-6.072,-6.074,-6.0768,-6.0815,-6.0828,-6.0851,-6.0886,-6.0927,-6.0948,-6.0998,-6.1025,-6.1064,-6.1043,-6.0982,-6.1157,-6.107,-6.1154,-6.1155,-6.1194,-6.1191,-6.1451,-6.1213,-6.1212,-6.1212,-6.1211,0,-6.0722,-6.0815,-6.0794,-6.0856,-6.0958,-6.093,-6.103,-6.1036,-6.1057,-6.1118,-6.107,-6.1128,-6.1097,-6.1152,-6.1136,-6.123,-6.1242,-6.1239,-6.1233,-6.1244,-6.1244,-6.1262,-6.125,-6.1219,-6.1217,-6.1216,-6.1215,0,-6.0922,-6.0912,-6.1019,-6.1036,-6.1043,-6.1117,-6.113,-6.1188,-6.1183,-6.126,-6.1277,-6.1268,-6.1331,-6.1314,-6.1381,-6.1369,-6.1488,-6.1468,-6.148,-6.1475,-6.156,-6.1553,-6.1841,-6.1877,-6.1615,-6.1618,-6.162,0,-6.1051,-6.1122,-6.1147,-6.1186,-6.1203,-6.1265,-6.13,-6.1274,-6.1312,-6.1349,-6.1402,-6.146,-6.1505,-6.1607,-6.1606,-6.1656,-6.1637,-6.1734,-6.1644,-6.1652,-6.1638,-6.1634,-6.1641,-6.1752,-6.1755,-6.1758,-6.176,0,-6.1281,-6.1273,-6.1326,-6.1379,-6.1422,-6.1461,-6.1496,-6.1529,-6.1506,-6.1551,-6.1615,-6.165,-6.1719,-6.1777,-6.1823,-6.1834,-6.1793,-6.1788,-6.181,-6.1821,-6.1825,-6.1824,-6.1529,-6.1782,-6.1779,-6.1778,-6.1777,-6.1776,-6.1449,-6.1509,-6.1537,-6.1597,-6.1621,-6.1654,-6.1709,-6.1712,-6.1765,-6.1821,-6.1801,-6.1874,-6.1899,-6.1957,-6.1974,-6.2029,-6.1992,-6.2024,-6.2032,-6.2041,-6.2052,-6.1817,-6.2038,-6.2037,-6.2036,-6.2036,-6.2035,0,-6.1676,-6.1691,-6.1748,-6.1798,-6.1846,-6.1805,-6.1841,-6.1883,-6.1948,-6.1976,-6.2022,-6.2094,-6.215,-6.2154,-6.2206,-6.2249,-6.2232,-6.2264,-6.226,-6.2263,-6.2082,-6.2058,-6.2277,-6.2277,-6.2277,-6.2277,-6.2277,-6.2277,-6.18,-6.1899,-6.1894,-6.2003,-6.2016,-6.2089,-6.2113,-6.2143,-6.2165,-6.2249,-6.2296,-6.2298,-6.2316,-6.2368,-6.2417,-6.2416,-6.2438,-6.2477,-6.2469,-6.23,-6.2276,-6.2253,-6.223,-6.2482,-6.2482,-6.2646,-6.2647,-6.2648]}]]